Location: Zagreb
(45.8000°N, 16.0000°E)
Time: 01:21:05
(UTC+01:00)

S-56A Canister/Altair - All Passes

Search period start: 26 January 2020 00:00
Search period end: 05 February 2020 00:00
Orbit: 634 x 2498 km, 38.9° (Epoch: 25 January)

Date Brightness Start Highest point End Pass type
(mag) Time Alt. Az. Time Alt. Az. Time Alt. Az.
26 Jan - 19:09:09 10° SSW 19:14:52 24° SSE 19:19:16 10° ESE visible
26 Jan - 21:12:45 10° WSW 21:18:13 38° S 21:22:33 10° ESE visible
26 Jan - 23:17:03 10° WSW 23:21:15 29° SSW 23:25:06 10° SE night (unlit)
27 Jan - 18:36:09 10° SSW 18:42:13 24° SSE 18:46:50 10° ESE visible
27 Jan - 20:39:44 10° WSW 20:45:41 39° S 20:50:10 10° ESE visible
27 Jan - 22:44:13 10° WSW 22:48:46 32° SSW 22:52:45 10° SE night (unlit)
28 Jan - 00:49:53 10° SW 00:51:28 12° SSW 00:53:03 10° S night (unlit)
28 Jan - 18:03:07 10° SSW 18:09:30 23° SSE 18:14:21 10° ESE visible
28 Jan - 20:06:38 10° WSW 20:13:05 39° S 20:17:49 10° ESE visible
28 Jan - 22:11:17 10° WSW 22:16:17 35° SSW 22:20:25 10° SE visible
29 Jan - 00:16:39 10° WSW 00:18:59 14° SSW 00:21:16 10° S night (unlit)
29 Jan - 17:30:06 10° SSW 17:36:46 22° SSE 17:41:51 10° ESE visible
29 Jan - 19:33:28 10° WSW 19:40:28 39° S 19:45:28 10° ESE visible
29 Jan - 21:38:17 10° WSW 21:43:47 38° S 21:48:06 10° ESE visible
29 Jan - 23:43:33 10° WSW 23:46:31 16° SSW 23:49:19 10° S night (unlit)
30 Jan - 16:57:02 10° SSW 17:03:58 22° SSE 17:09:17 10° ESE daylight
30 Jan - 19:00:14 10° SW 19:07:49 39° S 19:13:07 10° ESE visible
30 Jan - 21:05:12 10° WSW 21:11:15 41° S 21:15:48 10° ESE visible
30 Jan - 23:10:28 10° WSW 23:14:04 19° SSW 23:17:17 10° SSE night (unlit)
31 Jan - 16:24:01 10° SSW 16:31:09 21° SSE 16:36:40 10° ESE daylight
31 Jan - 18:26:56 10° SW 18:35:05 39° SSE 18:40:45 10° E visible
31 Jan - 20:32:01 10° WSW 20:38:41 44° S 20:43:30 10° ESE visible
31 Jan - 22:37:23 10° WSW 22:41:36 23° SSW 22:45:13 10° SSE night (unlit)
01 Feb - 15:51:02 10° S 15:58:16 20° SSE 16:03:58 10° ESE daylight
01 Feb - 17:53:36 10° SW 18:02:20 38° SSE 18:08:22 10° E visible
01 Feb - 19:58:45 10° WSW 20:06:05 46° S 20:11:12 10° ESE visible
01 Feb - 22:04:14 10° W 22:09:08 27° SSW 22:13:06 10° SSE visible
02 Feb - 15:18:06 10° S 15:25:20 19° SSE 15:31:10 10° ESE daylight
02 Feb - 17:20:13 10° SW 17:29:31 38° SSE 17:35:55 10° E visible
02 Feb - 19:25:24 10° WSW 19:33:25 48° S 19:38:53 10° ESE visible
02 Feb - 21:31:02 10° W 21:36:38 31° SSW 21:40:57 10° SE visible
03 Feb - 14:45:16 10° S 14:52:23 18° SE 14:58:14 10° ESE daylight
03 Feb - 16:46:50 10° SW 16:56:37 37° SSE 17:03:27 10° E daylight
03 Feb - 18:51:58 10° WSW 19:00:42 50° S 19:06:34 10° ESE visible
03 Feb - 20:57:47 10° W 21:04:07 35° SSW 21:08:47 10° SE visible
03 Feb - 23:05:43 10° SW 23:06:28 10° SW 23:07:13 10° SSW night (unlit)
04 Feb - 14:12:34 10° S 14:19:23 16° SE 14:25:09 10° ESE daylight
04 Feb - 16:13:26 10° SW 16:23:42 36° SSE 16:30:57 10° E daylight
04 Feb - 18:18:29 10° WSW 18:27:56 51° S 18:34:12 10° ESE visible
04 Feb - 20:24:26 10° W 20:31:32 40° SSW 20:36:35 10° SE visible
04 Feb - 22:31:18 10° WSW 22:34:02 14° SW 22:36:29 10° S visible
